Regional Weather Roundup
Issued by NWS

Home | Current Version | Previous Version | Graphics & Text | Print | Product List | Glossary On
Versions: 1 2 3 4 5 6 7 8 9 10 11 12 13 14 15 16 17 18 19 20 21 22 23 24 25 26 27 28 29 30 31 32 33 34 35 36 37 38 39 40 41 42 43 44 45 46 47 48 49 50
000
ASUS43 KLOT 310108
RWRIL

ILLINOIS REGIONAL WEATHER ROUNDUP
NATIONAL WEATHER SERVICE CHICAGO/ROMEOVILLE IL
800 PM CDT SAT JUL 30 2016

NOTE: "FAIR" INDICATES FEW OR NO CLOUDS BELOW 12,000 FEET WITH NO
SIGNIFICANT WEATHER AND/OR OBSTRUCTIONS TO VISIBILITY.

* THESE STATIONS ARE NOT UNDER NWS QUALITY CONTROL. THEY ALSO MAY NOT
  REPORT WEATHER SUCH AS PRECIPITATION OR FOG.

ILZ001-002-007-009-015-016-024-310200-
NORTHWEST ILLINOIS

CITY           SKY/WX    TMP DP  RH WIND       PRES   REMARKS
MOLINE         CLEAR     78  66  66 NE5       29.95S HX  80
STERLING*      PTCLDY    74  68  81 NE5       29.97S
SAVANNA*       CLEAR     74  64  69 E3        29.97S
$$

ILZ003-004-008-010-011-017-018-310200-
NORTH CENTRAL ILLINOIS

CITY           SKY/WX    TMP DP  RH WIND       PRES   REMARKS
ROCKFORD       PTCLDY    74  61  63 E5        30.00R
FREEPORT*      CLOUDY    72  64  76 E3        30.00S
ROCHELLE*      CLEAR     73  65  76 NE8       29.99S
DE KALB*       CLEAR     71  65  81 NE10      30.00S
$$

ILZ005-006-012>014-019>023-310200-
NORTHEAST ILLINOIS

CITY           SKY/WX    TMP DP  RH WIND       PRES   REMARKS
CHICAGO-OHARE  MOCLDY    71  64  78 NE10      29.99S
CHICAGO-MIDWAY MOCLDY    73  63  70 NE13      29.98S
AURORA         CLEAR     73  64  73 NE9       29.98R
LANSING*       CLOUDY    71  63  75 N9        29.99R
JOLIET*        PTCLDY    74  66  75 NE6       29.98R
WAUKEGAN       CLOUDY    70  62  76 N7        30.00R
DUPAGE AIRPORT CLEAR     71  62  73 NE9       29.99R
KANKAKEE*      CLEAR     71  67  85 NE6       29.96S
WHEELING       MOCLDY    71  64  78 NE7       30.01R
MORRIS*        CLOUDY    74  67  78 CALM      29.96R
ROMEOVILLE*    MOCLDY    71  61  71 NE12      29.98S
NORTHERLY ISL    N/A     71  64  78 NE6         N/A
$$

LMZ740>746-310200-
SOUTHERN LAKE MICHIGAN

STATION/POSITION SKY/WX   TEMP    WIND        PRES    VSBY  WAVE
                          AIR SEA DIR/SP/G                  HT/PER
                          (F)     (DEG/KT/KT) (MB)    (MI)  (FT/S)
SOUTHERN BUOY              72 74   30/ 12/ 12 1014.9R         2/ 3
WILMETTE HARBOR            71 71   50/ 12/ 14   N/A           2/ 3
HARRISON CRIB              72      10/ 12/ 14   N/A
BURNHAM HARBOR             71      30/  6/ 11   N/A
CALUMET HARBOR             72     360/  9/ 12   N/A
BURNS HARBOR               70      30/ 11/ 14 1015.6R
MICHIGAN CITY              70     360/ 14/ 15   N/A
MICHIGAN CITY 6N           72 73   30/ 14/ 17   N/A           3/ 4
ST. JOSEPH                 69 68   10/ 12/ 14 1014.8R         3/ 4
$$

ILZ025>027-034>036-040-047-049-050-058-095>099-310200-
WEST-CENTRAL ILLINOIS

CITY           SKY/WX    TMP DP  RH WIND       PRES   REMARKS
QUINCY         CLEAR     77  69  76 CALM      29.96S
GALESBURG*     CLEAR     75  68  79 N6        29.96R
MACOMB*        PTCLDY    75  69  79 W5        29.98R
JACKSONVILLE*  PTCLDY    77  69  78 CALM      29.96R
PITTSFIELD*    PTCLDY    78  68  71 CALM      29.97S HX  80
$$

ILZ028>032-037-038-041>044-048-051>054-059>061-310200-
CENTRAL ILLINOIS

CITY           SKY/WX    TMP DP  RH WIND       PRES   REMARKS
PONTIAC        CLEAR     74  72  94 CALM      29.96S
BLOOMINGTON    PTCLDY    73  68  84 NE6       29.97S
DECATUR        CLEAR     78  66  66 NW6       29.95S HX  80
PEORIA         CLEAR     76  68  76 NE7       29.95S
LACON*         CLEAR     73  67  81 CALM      29.95R
LINCOLN*       CLOUDY    76  71  83 CALM      29.95S
SPRINGFIELD    CLEAR     76  70  82 W3        29.96R
TAYLORVILLE    CLEAR     74  68  81 MISG      29.96R
$$

ILZ033-039-045-046-055>057-062-063-310200-
EAST-CENTRAL ILLINOIS

CITY           SKY/WX    TMP DP  RH WIND       PRES   REMARKS
CHAMPAIGN      CLOUDY    74  68  81 N5        29.95S
MATTOON        CLEAR     74  67  78 W3        29.95R
PARIS*         CLEAR     73  70  90 CALM      29.96R
$$

ILZ079-100>102-310200-
SOUTHWEST ILLINOIS

CITY           SKY/WX    TMP DP  RH WIND       PRES   REMARKS
ALTON          PTCLDY    77  66  69 CALM      29.96R
BELLEVILLE     CLEAR     80  71  74 E2        29.94S HX  83
CAHOKIA*       CLEAR     82  67  60 CALM      29.94S HX  84
SPARTA*        CLEAR     78  69  76 NE3       29.96S
$$

ILZ064>066-069>071-074>076-080>082-084>086-088>090-092>094-310200-
SOUTH-CENTRAL ILLINOIS

CITY           SKY/WX    TMP DP  RH WIND       PRES   REMARKS
CARBONDALE     CLEAR     79  72  79 SE3       29.95S HX  82
CAIRO*         CLOUDY    79  75  87 SE3       29.95S HX  83
EFFINGHAM*     CLEAR     76  70  81 CALM      29.97S
MARION         CLEAR     79  73  83 CALM      29.97R HX  82
MT. VERNON     CLEAR     75  66  73 CALM      29.96S
CENTRALIA*     CLEAR     79  71  76 CALM      29.95F HX  82
SALEM*         CLEAR     78  70  77 CALM      29.95F HX  80
METROPOLIS*    MOCLDY    78  75  91 CALM      29.97R HX  80
$$

ILZ067-068-072-073-078-083-087-091-310200-
SOUTHEAST ILLINOIS

CITY           SKY/WX    TMP DP  RH WIND       PRES   REMARKS
LAWRENCEVILLE  CLEAR     78  69  73 W5        29.96R HX  80
FLORA*         CLEAR     79  69  71 CALM      29.96S HX  81
FAIRFIELD*     PTCLDY    76  70  83 CALM      29.95R
HARRISBURG*    CLEAR     80  73  81 CALM      29.96S HX  84
ROBINSON*      CLEAR     76  68  76 W3        29.96R
CARMI*         PTCLDY    78  73  84 CALM      29.95S HX  81
$$

ABBREVIATIONS USED IN REMARKS
   TC - TEMPERATURE IN CELSIUS
  WCI - WIND CHILL INDEX
   HX - HEAT INDEX
  VSB - VISIBILITY
$$




USA.gov is the U.S. government's official web portal to all federal, state and local government web resources and services.